Flag for Germany Weather past 2 weeks in Salzwedel, Saxony-Anhalt, Germany

Now
50 °F

Drizzle. Fog.


Feels Like: 43 °F
Forecast: 49 / 50 °F
Wind: 24 mph from West

Location: Fassberg

Current Time: Dec 22, 2014 at 2:45:47 PM

Latest Report: Dec 22, 2014 at 1:20 PM


Visibility: 2 mi

Pressure: 29.80 "Hg

Humidity: 94%

Dew point: 48 °F

Location of SalzwedelLocation

Historic Weather in Salzwedel — Graph

°F

Salzwedel temperature yesterday

Maximum temperature yesterday: 46 °F (at 10:20 PM)
Minimum temperature yesterday: 37 °F (at 8:20 AM)
Average temperature yesterday: 41 °F

Past Weeks' High & Low Weather Summary

 TemperatureHumidityPressure
High54 °F (Dec 18, 8:20 PM)100% (Dec 14, 12:20 AM)30.33 "Hg (Dec 14, 12:20 AM)
Low32 °F (Dec 14, 11:20 PM)70% (Dec 10, 4:20 AM)29.27 "Hg (Dec 12, 2:20 PM)
Average40 °F88%29.83 "Hg
* Reported Dec 7 1:20 PM — Dec 22 1:20 PM, Salzwedel, Weather by CustomWeather, © 2014

Note: Actual official high and low records may vary slightly from our data, if they occured in-between our weather recording intervals... More about our weather records

Advertising

Salzwedel weather history for previous 24 hours

 ConditionsComfort  
Time TempWeatherWind HumidityBarometerVisibility
1:20 PM
Dec 22
50 °FDrizzle. Fog.24 mph94%29.80 "Hg2 mi
12:20 PM50 °FDrizzle. Fog.25 mph94%29.80 "Hg2 mi
11:20 AM50 °FPartly sunny.26 mph88%29.77 "HgN/A
11:03 AM50 °FPartly sunny.26 mph88%29.77 "HgN/A
10:20 AM48 °FDrizzle. Fog.25 mph94%29.80 "Hg2 mi
9:46 AM48 °FDrizzle. Fog.25 mph94%29.80 "Hg3 mi
9:20 AM48 °FPartly sunny.26 mph94%29.80 "Hg5 mi
9:04 AM48 °FPartly sunny.24 mph94%29.80 "Hg4 mi
8:20 AM48 °FDrizzle. Fog.26 mph94%29.83 "Hg2 mi
7:20 AM48 °FDrizzle. Fog.24 mph94%29.83 "Hg2 mi
6:20 AM48 °FDrizzle. Fog.24 mph94%29.83 "Hg1 mi
5:20 AM48 °FDrizzle. Fog.24 mph87%29.83 "Hg2 mi
4:20 AM48 °FLight rain. Fog.25 mph87%29.86 "Hg2 mi
3:20 AM46 °FDrizzle. Fog.24 mph93%29.89 "Hg2 mi
2:45 AM46 °FDrizzle. Fog.25 mph93%29.89 "Hg2 mi
2:20 AM48 °FLight rain. Fog.24 mph87%29.89 "Hg3 mi
1:20 AM46 °FPassing clouds.25 mph87%29.92 "HgN/A
12:20 AM46 °FLight rain. Passing clouds.22 mph87%29.95 "HgN/A
11:20 PM
Dec 21
46 °FPassing clouds.21 mph82%29.95 "HgN/A
10:20 PM46 °FPassing clouds.23 mph82%29.98 "HgN/A
9:20 PM45 °FPassing clouds.20 mph87%30.01 "Hg5 mi
9:00 PM45 °FDrizzle. Fog.20 mph87%30.01 "Hg3 mi
8:20 PM43 °FPassing clouds.18 mph87%30.04 "HgN/A
7:20 PM43 °FPartly cloudy.17 mph87%30.04 "Hg4 mi
6:52 PM43 °FPassing clouds.15 mph87%30.07 "Hg4 mi
6:20 PM41 °FDrizzle. Fog.16 mph93%30.07 "Hg2 mi
5:20 PM43 °FFog.17 mph87%30.09 "Hg3 mi
4:20 PM43 °FDrizzle. Fog.15 mph87%30.12 "Hg3 mi
3:20 PM43 °FPartly sunny.15 mph87%30.12 "HgN/A
2:20 PM43 °FPartly sunny.15 mph87%30.15 "Hg4 mi
Weather by CustomWeather, © 2014

See weather overviewHow to use our weather pages